Location: Cahas Mountain Overlook
(37.0833°N, 80.1000°W)
Time: 19:50:37
(UTC-04:00)

Explorer 7 - Pass Details

Date: 16 February 2026
Orbit: 430 x 541 km, 50.2° (Epoch: 13 March)

Event Time Altitude Azimuth Distance (km) Brightness Sun altitude
Rises 15:19:35 0° 231° (SW) 2,400 11.4 27.4°
Reaches altitude 10° 15:21:40 10° 231° (SW) 1,547 10.9 27.1°
Maximum altitude 15:25:09 88° 322° (NW) 454 6.9 26.6°
Drops below altitude 10° 15:28:46 10° 52° (NE) 1,609 8.7 26.0°
Sets 15:30:58 0° 52° (NE) 2,509 9.6 25.7°
